TimeEDT,TemperatureF,Dew PointF,Humidity,Sea Level PressureIn,VisibilityMPH,Wind Direction,Wind SpeedMPH,Gust SpeedMPH,PrecipitationIn,Events,Conditions,WindDirDegrees,DateUTC
12:15 AM,55.4,53.6,94,30.01,10.0,Calm,Calm,-,N/A,,Clear,0,2013-10-19 04:15:00
12:35 AM,55.4,53.6,94,30.01,10.0,Calm,Calm,-,N/A,,Scattered Clouds,0,2013-10-19 04:35:00
12:55 AM,55.4,53.6,94,30.02,10.0,Calm,Calm,-,N/A,,Mostly Cloudy,0,2013-10-19 04:55:00
1:15 AM,55.4,53.6,94,30.01,10.0,Calm,Calm,-,N/A,,Mostly Cloudy,0,2013-10-19 05:15:00
1:35 AM,55.4,53.6,94,30.01,10.0,Calm,Calm,-,N/A,,Overcast,0,2013-10-19 05:35:00
1:55 AM,57.2,53.6,88,29.99,10.0,Calm,Calm,-,N/A,,Overcast,0,2013-10-19 05:55:00
2:15 AM,59.0,53.6,82,30.00,10.0,Calm,Calm,-,N/A,Rain,Light Rain,0,2013-10-19 06:15:00
2:35 AM,59.0,55.4,88,30.00,10.0,Calm,Calm,-,N/A,,Light Drizzle,0,2013-10-19 06:35:00
2:55 AM,57.2,55.4,94,29.99,10.0,Calm,Calm,-,N/A,,Overcast,0,2013-10-19 06:55:00
3:15 AM,55.4,53.6,94,29.99,10.0,Calm,Calm,-,N/A,,Scattered Clouds,0,2013-10-19 07:15:00
3:35 AM,55.4,55.4,100,29.98,10.0,Calm,Calm,-,N/A,,Mostly Cloudy,0,2013-10-19 07:35:00
3:55 AM,57.2,55.4,94,29.98,10.0,Calm,Calm,-,N/A,,Mostly Cloudy,0,2013-10-19 07:55:00
4:15 AM,55.4,55.4,100,29.97,10.0,Calm,Calm,-,N/A,,Overcast,0,2013-10-19 08:15:00
4:35 AM,57.2,55.4,94,29.98,10.0,Calm,Calm,-,N/A,,Overcast,0,2013-10-19 08:35:00
4:55 AM,59.0,55.4,88,29.98,10.0,Calm,Calm,-,N/A,,Overcast,0,2013-10-19 08:55:00
5:15 AM,59.0,55.4,88,29.97,10.0,Calm,Calm,-,N/A,,Overcast,0,2013-10-19 09:15:00
5:35 AM,57.2,55.4,94,29.97,10.0,Calm,Calm,-,N/A,,Overcast,0,2013-10-19 09:35:00
5:55 AM,57.2,55.4,94,29.97,10.0,Calm,Calm,-,N/A,,Mostly Cloudy,0,2013-10-19 09:55:00
6:15 AM,59.0,55.4,88,29.97,10.0,Calm,Calm,-,N/A,Rain,Light Rain,0,2013-10-19 10:15:00
6:35 AM,57.2,55.4,94,29.97,10.0,Calm,Calm,-,N/A,,Overcast,0,2013-10-19 10:35:00
6:55 AM,59.0,55.4,88,29.97,10.0,Calm,Calm,-,N/A,,Overcast,0,2013-10-19 10:55:00
7:15 AM,59.0,55.4,88,29.96,10.0,Calm,Calm,-,N/A,Rain,Light Rain,0,2013-10-19 11:15:00
7:35 AM,57.2,55.4,94,29.96,10.0,Calm,Calm,-,N/A,Rain,Light Rain,0,2013-10-19 11:35:00
7:55 AM,57.2,55.4,94,29.97,3.0,Calm,Calm,-,N/A,,Overcast,0,2013-10-19 11:55:00
8:55 AM,59.0,57.2,94,29.98,3.0,Calm,Calm,-,N/A,,Overcast,0,2013-10-19 12:55:00
9:55 AM,60.8,57.2,88,29.98,3.0,Calm,Calm,-,N/A,,Overcast,0,2013-10-19 13:55:00
10:55 AM,60.8,59.0,94,29.97,3.0,Calm,Calm,-,N/A,,Overcast,0,2013-10-19 14:55:00
11:55 AM,62.6,60.8,94,29.96,3.0,Calm,Calm,-,N/A,,Overcast,0,2013-10-19 15:55:00
12:55 PM,64.4,60.8,88,29.94,3.0,Calm,Calm,-,N/A,,Overcast,0,2013-10-19 16:55:00
1:55 PM,64.4,59.0,83,29.93,3.0,Calm,Calm,-,N/A,,Scattered Clouds,0,2013-10-19 17:55:00
2:55 PM,64.4,57.2,77,29.90,7.0,Calm,Calm,-,N/A,,Overcast,0,2013-10-19 18:55:00
3:55 PM,64.4,57.2,77,29.92,7.0,West,4.6,-,N/A,,Overcast,260,2013-10-19 19:55:00
4:55 PM,64.4,55.4,73,29.92,7.0,SSW,5.8,-,N/A,,Overcast,210,2013-10-19 20:55:00
5:55 PM,64.4,53.6,68,29.91,10.0,WSW,3.5,-,N/A,,Overcast,240,2013-10-19 21:55:00
6:55 PM,62.6,53.6,72,29.92,10.0,Calm,Calm,-,N/A,,Scattered Clouds,0,2013-10-19 22:55:00
7:55 PM,55.4,53.6,94,29.94,10.0,Calm,Calm,-,N/A,,Clear,0,2013-10-19 23:55:00
8:55 PM,57.2,53.6,88,29.95,10.0,Calm,Calm,-,N/A,,Clear,0,2013-10-20 00:55:00
9:15 PM,55.4,53.6,94,29.96,10.0,Calm,Calm,-,N/A,,Clear,0,2013-10-20 01:15:00
9:35 PM,53.6,51.8,94,29.96,10.0,Calm,Calm,-,N/A,,Clear,0,2013-10-20 01:35:00
9:55 PM,55.4,53.6,94,29.96,10.0,Calm,Calm,-,N/A,,Clear,0,2013-10-20 01:55:00
10:15 PM,53.6,51.8,94,29.97,7.0,Calm,Calm,-,N/A,,Clear,0,2013-10-20 02:15:00
10:55 PM,51.8,50.0,94,29.96,1.5,Calm,Calm,-,N/A,,Mist,0,2013-10-20 02:55:00
11:15 PM,51.8,50.0,94,29.96,3.0,Calm,Calm,-,N/A,,Clear,0,2013-10-20 03:15:00
11:35 PM,50.0,50.0,100,29.97,0.8,Calm,Calm,-,N/A,,Mist,0,2013-10-20 03:35:00
11:55 PM,50.0,50.0,100,29.97,0.5,Calm,Calm,-,N/A,Fog,Fog,0,2013-10-20 03:55:00